Alsosag, Hungary

10:44 AM CET on December 10, 2016 (GMT +0100)
Papa

Weather History for LHPA - October, 2011

Change the Weather History Date:

Wednesday, October 12, 2011

  Actual Average Record
Temperature  
Mean Temperature 58 °F -  
Max Temperature 66 °F - - ()
Min Temperature 50 °F - - ()
Degree Days  
Heating Degree Days 7    
Growing Degree Days 8 (Base 50)    
Moisture  
Dew Point 50 °F    
Average Humidity 81    
Maximum Humidity 94    
Minimum Humidity 56    
Precipitation  
Precipitation 0.00 in - - ()
Sea Level Pressure  
Sea Level Pressure 30.02 in    
Wind  
Wind Speed 7 mph ()    
Max Wind Speed 18 mph    
Max Gust Speed 29 mph    
Visibility 5.9 miles    
Events Rain    
T = Trace of Precipitation, MM = Missing Value Source: Averaged Metar Reports

Daily Weather History Graph

Daily Weather History Graph

Search for Another Location

Airport or City:

Trip Planner

Search our weather history database for the weather conditions in past years. The results will help you decide how hot, cold, wet, or windy it might be!

Date:

Astronomy

Oct. 12, 2011 Rise Set
Actual Time 7:03 AM CEST 6:08 PM CEST
Civil Twilight 6:32 AM CEST 6:39 PM CEST
Nautical Twilight 5:57 AM CEST 7:15 PM CEST
Astronomical Twilight 5:21 AM CEST 7:50 PM CEST
Moon 5:54 PM CEST (10/12) 7:27 AM CEST (10/12)
Length of Visible Light 12h 06m
Length of Day
11h 05m
Full, 100% of the Moon is Illuminated
Oct 12
Full
Oct 20
Last Quarter
Oct 26
New
Nov 2
First Quarter
Nov 10
Full

Hourly Weather History & Observations

Time (CEST) Temp. Dew Point Humidity Pressure Visibility Wind Dir Wind Speed Gust Speed Precip Events Conditions
12:15 AM 51.8 °F 50.0 °F 94% 29.98 in - SSE 4.5 mph - N/A   Clear
12:45 AM 51.8 °F 50.0 °F 94% 29.98 in - South 4.5 mph - N/A   Clear
1:15 AM 51.8 °F 50.0 °F 94% 29.98 in - Calm Calm - N/A   Clear
1:45 AM 51.8 °F 48.2 °F 88% 29.98 in - Calm Calm - N/A   Clear
2:15 AM 50.0 °F 48.2 °F 94% 29.98 in - Calm Calm - N/A   Clear
2:45 AM 50.0 °F 48.2 °F 94% 29.98 in - WSW 2.2 mph - N/A   Clear
3:15 AM 51.8 °F 50.0 °F 94% 29.98 in - SSW 2.2 mph - N/A   Clear
3:45 AM - - N/A% - 4.3 mi NW 11.2 mph 22.4 mph N/A Rain Light Rain Showers
4:15 AM 59.0 °F 53.6 °F 82% 29.98 in - WNW 6.7 mph - N/A   Clear
4:45 AM 59.0 °F 53.6 °F 82% 29.98 in - WNW 6.7 mph - N/A   Clear
5:15 AM 59.0 °F 53.6 °F 82% 29.98 in - WNW 8.9 mph - N/A   Clear
5:45 AM 57.2 °F 53.6 °F 88% 29.98 in - NW 8.9 mph - N/A   Clear
6:15 AM 59.0 °F 51.8 °F 77% 29.98 in - NW 13.4 mph 26.8 mph N/A   Clear
6:45 AM - - N/A% - 6.2 mi NW 15.7 mph 26.8 mph N/A   Overcast
7:15 AM 60.8 °F 51.8 °F 72% 29.98 in - NW 13.4 mph 26.8 mph N/A   Clear
7:45 AM 62.6 °F 50.0 °F 63% 29.98 in - NW 13.4 mph 29.1 mph N/A   Clear
8:15 AM 62.6 °F 50.0 °F 63% 29.98 in - NW 13.4 mph 26.8 mph N/A   Clear
8:45 AM 62.6 °F 50.0 °F 63% 30.01 in - WNW 11.2 mph - N/A   Clear
9:15 AM 66.2 °F 50.0 °F 56% 29.98 in - WNW 13.4 mph 26.8 mph N/A   Clear
9:45 AM - - N/A% - 4.3 mi NW 15.7 mph 26.8 mph N/A Rain Light Rain Showers
10:15 AM 66.2 °F 51.8 °F 60% 30.01 in - WNW 15.7 mph 26.8 mph N/A   Clear
10:45 AM 62.6 °F 53.6 °F 72% 30.04 in 6.2 mi WNW 15.7 mph 26.8 mph N/A   Mostly Cloudy
11:15 AM 62.6 °F 51.8 °F 68% 30.04 in 6.2 mi NNW 17.9 mph - N/A   Mostly Cloudy
11:45 AM 60.8 °F 51.8 °F 72% 30.04 in 6.2 mi NNW 17.9 mph - N/A   Scattered Clouds
12:15 PM 60.8 °F 50.0 °F 68% 30.04 in 6.2 mi NNW 17.9 mph - N/A   Mostly Cloudy
12:45 PM - - N/A% - 6.2 mi North 15.7 mph 26.8 mph N/A   Overcast
1:15 PM 59.0 °F 48.2 °F 67% 30.04 in 6.2 mi North 13.4 mph - N/A   Mostly Cloudy
1:45 PM 59.0 °F 48.2 °F 67% 30.04 in 6.2 mi NNW 11.2 mph - N/A   Mostly Cloudy
2:15 PM 57.2 °F 48.2 °F 72% 30.01 in 6.2 mi North 13.4 mph - N/A   Mostly Cloudy
2:45 PM 57.2 °F 48.2 °F 72% 30.04 in 6.2 mi North 11.2 mph - N/A   Mostly Cloudy
3:15 PM 57.2 °F 48.2 °F 72% 30.04 in 6.2 mi North 8.9 mph - N/A   Mostly Cloudy
3:45 PM - - N/A% - 6.2 mi North 8.9 mph - N/A   Overcast
4:15 PM 53.6 °F 48.2 °F 82% 30.04 in 6.2 mi NNW 4.5 mph - N/A Rain Light Rain Showers
4:45 PM 53.6 °F 50.0 °F 88% 30.04 in 6.2 mi North 4.5 mph - N/A Rain Light Rain
5:15 PM 53.6 °F 50.0 °F 88% 30.04 in 6.2 mi North 4.5 mph - N/A Rain Light Rain
5:45 PM 51.8 °F 50.0 °F 94% 30.04 in 6.2 mi North 2.2 mph - N/A Rain Light Rain
6:45 PM - - N/A% - 6.2 mi NNW 6.7 mph - N/A   Overcast
7:15 PM 51.8 °F 50.0 °F 94% 30.06 in 6.2 mi North 2.2 mph - N/A Rain Light Rain
7:45 PM 51.8 °F 48.2 °F 88% 30.06 in 6.2 mi North 2.2 mph - N/A Rain Light Rain
8:15 PM 51.8 °F 48.2 °F 88% 30.06 in 6.2 mi NNE 8.9 mph - N/A Rain Light Rain
8:45 PM 51.8 °F 50.0 °F 94% 30.06 in 6.2 mi North 8.9 mph - N/A   Mostly Cloudy
9:15 PM 50.0 °F 48.2 °F 94% 30.06 in 6.2 mi NNE 6.7 mph - N/A   Mostly Cloudy
9:45 PM - - N/A% - 6.2 mi North 6.7 mph - N/A   Overcast
10:15 PM 50.0 °F 48.2 °F 94% 30.06 in 5.0 mi NNE 2.2 mph - N/A Rain Light Rain
10:45 PM 50.0 °F 48.2 °F 94% 30.09 in 5.0 mi NNE 2.2 mph - N/A Rain Light Rain
11:15 PM 50.0 °F 48.2 °F 94% 30.09 in 5.0 mi North 4.5 mph - N/A Rain Light Rain
11:45 PM 50.0 °F 48.2 °F 94% 30.09 in 5.0 mi North 4.5 mph - N/A Rain Light Rain